Retour au catalogue

STARLINK-32708

ActifCommunicationsVLEO
NORAD 62495·PAYLOAD·🇺🇸 United States

Lancé Jan 6, 2025 depuis Cape Canaveral Space Force Station

Loading…

Prochains Passages (prochaines 24 heures)

TLE

FraisSource: CelesTrak SupGP

Époque: Sep 15, 2026, 03:17 UTC

1 62495C 25003J   26258.13729167  .00022725  00000+0  82267-3 0  2588
2 62495  43.0003 299.2227 0001445 263.8142  85.9541 15.27584229    19

Suivez STARLINK-32708 en temps réel avec AllMySat

Download on the App Store